Stations météo

Publicité
Cap Corse, France (7785): Température de l'air & dewpoint: 18.01.2021 06:00:00 - 24.01.2021 06:00:00 (CET)Cap Corse, France (7785): Vitesse du vent & gusts: 18.01.2021 06:00:00 - 24.01.2021 06:00:00 (CET)Cap Corse, France (7785): Direction du vent: 18.01.2021 06:00:00 - 24.01.2021 06:00:00 (CET)Cap Corse, France (7785): reduced air pressure: 18.01.2021 06:00:00 - 24.01.2021 06:00:00 (CET)Cap Corse, France (7785): visibility: 18.01.2021 06:00:00 - 24.01.2021 06:00:00 (CET)Cap Corse, France (7785): Quantités de précipitations: 18.01.2021 06:00:00 - 24.01.2021 06:00:00 (CET)
Date & Time tt [°C] td [°C] ff [km/h] ff [knt] fx [km/h] fx [knt] dd ppp [hPa] vv [km] rr [mm]
24.01.2021 06:00:00 11,5 9,2 53 29 102 55 W 994,3 - 0,2
24.01.2021 05:00:00 11,5 7,2 39 21 106 57 WSW 995,4 - 0,4
24.01.2021 04:00:00 11,1 8,8 76 41 120 65 W 995,7 - 0,4
24.01.2021 03:00:00 11,5 8,7 49 26 138 74 W 997,4 - 0,0
24.01.2021 02:00:00 12,0 9,0 77 42 131 71 W 997,1 - 0,2
24.01.2021 01:00:00 12,2 9,2 74 40 114 62 W 998,1 - 0,2
24.01.2021 00:00:00 12,8 7,9 80 43 119 64 W 999,2 - 0,0
23.01.2021 23:00:00 12,6 7,9 84 45 134 73 W 998,7 - 0,0
23.01.2021 22:00:00 12,3 7,4 96 52 135 73 W 998,5 - 0,0
23.01.2021 21:00:00 12,3 8,4 96 52 169 91 W 997,5 - 0,0
23.01.2021 20:00:00 12,3 8,0 92 50 153 83 W 997,0 - 0,0
23.01.2021 19:00:00 12,3 6,3 79 43 157 85 W 998,0 12 0,0
23.01.2021 18:00:00 12,2 6,9 85 46 140 76 W 998,1 - 0,0
23.01.2021 17:00:00 11,9 6,0 91 49 164 89 W 998,9 - 0,0
23.01.2021 16:00:00 11,7 5,6 100 54 162 87 W 998,7 12 0,0
23.01.2021 15:00:00 11,7 5,3 96 52 137 74 W 999,3 - 0,0
23.01.2021 14:00:00 11,7 4,4 85 46 114 62 W 998,6 - 0,0
23.01.2021 13:00:00 11,7 4,9 83 45 127 69 W 999,3 - 0,0
23.01.2021 12:00:00 11,1 3,4 80 43 115 62 W 999,1 - 0,0
23.01.2021 11:00:00 11,0 3,5 85 46 117 63 W 998,0 - 0,0
23.01.2021 10:00:00 10,8 3,3 84 45 122 66 WNW 997,8 - 0,0
23.01.2021 09:00:00 10,3 4,2 98 53 133 72 W 996,6 - 0,0
23.01.2021 08:00:00 9,8 4,4 91 49 123 67 WNW 996,0 - 0,0
23.01.2021 07:00:00 10,0 1,6 96 52 149 81 W 994,8 10 0,0
23.01.2021 06:00:00 10,3 2,1 106 57 181 98 W 993,5 - 0,0
23.01.2021 05:00:00 10,3 1,9 113 61 181 98 W 992,6 - 0,0
23.01.2021 04:00:00 9,9 2,3 108 59 189 102 W 990,5 - 0,0
23.01.2021 03:00:00 10,6 4,1 95 51 139 75 W 991,9 - 0,0
23.01.2021 02:00:00 10,5 3,5 101 54 145 79 W 991,6 - 0,0
23.01.2021 01:00:00 11,3 6,4 99 54 177 95 W 990,6 - 0,0
23.01.2021 00:00:00 11,1 7,4 87 47 166 90 W 990,0 - 0,0
22.01.2021 23:00:00 11,0 8,9 80 43 142 77 W 992,1 - 2,0
22.01.2021 22:00:00 10,9 8,1 67 36 133 72 W 993,1 12 1,0
22.01.2021 21:00:00 11,2 8,4 70 38 141 76 W 994,0 - 0,6
22.01.2021 20:00:00 11,5 7,8 65 35 132 71 W 993,4 - 0,0
22.01.2021 19:00:00 12,0 6,3 66 36 125 67 W 993,3 10 0,0
22.01.2021 18:00:00 11,0 9,6 32 17 93 50 W 995,7 - 4,6
22.01.2021 17:00:00 12,0 9,9 18 10 26 14 SE 995,4 - 0,0
22.01.2021 16:00:00 12,4 10,5 8 5 19 11 E 997,7 20 0,4
22.01.2021 15:00:00 12,5 10,0 20 11 35 19 SSE 999,2 - 0,6
22.01.2021 14:00:00 12,9 10,3 25 13 32 17 SE 1000,9 - 0,4
22.01.2021 13:00:00 14,6 8,3 6 4 16 8 E 1002,5 - 0,0
22.01.2021 12:00:00 14,0 8,6 4 2 14 8 W 1004,2 - 0,0
22.01.2021 11:00:00 14,3 9,9 5 3 17 9 ENE 1004,6 - 0,0
22.01.2021 10:00:00 13,9 9,1 4 2 9 5 NNE 1005,9 18 0,0
22.01.2021 09:00:00 13,8 7,1 3 2 5 3 E 1006,3 - 0,0
22.01.2021 08:00:00 13,3 6,4 6 3 23 12 E 1006,5 - 0,0
22.01.2021 07:00:00 13,5 6,8 16 9 26 14 SE 1006,8 18 0,0
22.01.2021 06:00:00 12,6 7,5 12 6 34 18 SW 1007,1 - 0,0
22.01.2021 05:00:00 13,8 8,6 20 11 44 24 WSW 1008,0 - 0,0
22.01.2021 04:00:00 13,9 8,5 23 13 37 20 W 1008,5 - 0,0
22.01.2021 03:00:00 14,3 5,1 6 3 43 23 SW 1009,1 - 0,0
22.01.2021 02:00:00 15,4 5,6 20 11 57 31 W 1009,1 - 0,0
22.01.2021 01:00:00 14,7 6,5 24 13 56 30 WSW 1010,0 - 0,0
22.01.2021 00:00:00 14,5 7,3 27 15 49 27 W 1010,9 - 0,0
21.01.2021 23:00:00 13,3 6,6 21 11 30 16 W 1011,9 - 0,0
21.01.2021 22:00:00 12,8 5,2 14 7 19 11 W 1012,0 18 0,0
21.01.2021 21:00:00 11,8 3,5 9 5 13 7 WNW 1012,3 - 0,0
21.01.2021 20:00:00 13,1 3,7 9 5 14 8 W 1012,7 - 0,0
21.01.2021 19:00:00 11,6 2,9 2 1 20 11 W 1012,8 18 0,0
21.01.2021 18:00:00 12,5 1,8 16 9 21 12 SSE 1012,9 - 0,0
21.01.2021 17:00:00 12,7 3,1 17 9 22 12 SE 1013,1 - 0,0
21.01.2021 16:00:00 13,5 5,1 12 7 15 8 SE 1013,1 18 0,0
21.01.2021 15:00:00 16,4 8,4 2 1 11 6 E 1012,9 - 0,0
21.01.2021 14:00:00 14,3 8,3 5 3 14 8 WNW 1013,4 - 0,0
21.01.2021 13:00:00 13,8 8,4 12 6 17 9 WNW 1014,1 - 0,0
21.01.2021 12:00:00 15,4 6,7 2 1 9 5 NW 1014,5 - 0,0
21.01.2021 11:00:00 14,4 6,2 9 5 16 8 SE 1014,6 - 0,0
21.01.2021 10:00:00 14,6 2,8 9 5 20 11 ESE 1014,3 18 0,0
21.01.2021 09:00:00 13,5 3,0 8 5 16 8 SE 1014,1 - 0,0
21.01.2021 08:00:00 11,7 3,5 8 4 9 5 E 1014,2 - 0,0
21.01.2021 07:00:00 10,4 3,4 2 1 9 5 WNW 1014,1 18 0,0
21.01.2021 06:00:00 11,1 2,6 3 2 14 8 E 1013,8 - 0,0
21.01.2021 05:00:00 10,6 4,5 10 5 17 9 W 1014,0 - 0,0
21.01.2021 04:00:00 10,9 4,4 10 5 13 7 W 1013,7 - 0,0
21.01.2021 03:00:00 10,1 4,9 4 2 12 6 NW 1014,4 - 0,0
21.01.2021 02:00:00 11,6 4,3 11 6 50 27 WSW 1014,6 - 0,0
21.01.2021 01:00:00 11,0 4,4 7 4 50 27 W 1014,9 - 0,0
21.01.2021 00:00:00 12,1 4,8 38 20 51 28 SSE 1015,2 - 0,0
20.01.2021 23:00:00 12,2 4,4 22 12 36 19 SSW 1016,4 - 0,0
20.01.2021 22:00:00 11,5 4,0 6 4 30 16 S 1017,0 - 0,0
20.01.2021 21:00:00 11,5 4,5 21 11 43 23 S 1017,3 - 0,0
20.01.2021 20:00:00 11,8 4,3 38 21 54 29 S 1017,5 - 0,0
20.01.2021 19:00:00 10,7 4,8 26 14 37 20 S 1018,0 20 0,0
20.01.2021 18:00:00 10,6 5,6 23 13 40 22 SSE 1018,5 - 0,0
20.01.2021 17:00:00 11,3 3,8 27 14 42 23 S 1018,5 - 0,0
20.01.2021 16:00:00 12,9 4,3 22 12 40 22 S 1018,7 20 0,0
20.01.2021 15:00:00 13,7 4,8 26 14 39 21 S 1019,3 - 0,0
20.01.2021 14:00:00 14,5 6,1 10 6 29 16 S 1019,7 - 0,0
20.01.2021 13:00:00 14,1 5,7 14 8 26 14 SE 1020,4 - 0,0
20.01.2021 12:00:00 14,3 5,6 10 5 16 9 E 1021,7 - 0,0
20.01.2021 11:00:00 14,3 4,6 4 2 8 4 ENE 1022,3 - 0,0
20.01.2021 10:00:00 12,8 3,4 2 1 10 5 W 1022,3 20 0,0
20.01.2021 09:00:00 11,6 4,1 4 2 13 7 ENE 1022,0 - 0,0
20.01.2021 08:00:00 9,8 3,7 9 5 11 6 E 1022,1 - 0,0
20.01.2021 07:00:00 10,0 3,5 4 2 18 10 WNW 1022,3 20 0,0
20.01.2021 06:00:00 10,9 3,4 11 6 22 12 SE 1022,0 - 0,0
20.01.2021 05:00:00 11,1 3,9 11 6 33 18 WSW 1022,2 - 0,0
20.01.2021 04:00:00 11,9 3,6 20 11 37 20 W 1022,4 - 0,0
20.01.2021 03:00:00 11,6 3,9 17 9 31 17 WSW 1022,8 - 0,0
20.01.2021 02:00:00 11,8 4,3 19 10 37 20 WSW 1022,8 - 0,0
20.01.2021 01:00:00 11,9 4,6 22 12 38 21 W 1023,3 - 0,0
20.01.2021 00:00:00 12,2 3,7 19 10 34 18 W 1023,7 - 0,0
19.01.2021 23:00:00 12,1 3,6 13 7 36 19 WSW 1024,2 - 0,0
19.01.2021 22:00:00 11,0 4,0 20 11 37 20 WSW 1024,3 25 0,0
19.01.2021 21:00:00 11,3 5,4 19 11 44 24 WSW 1024,3 - 0,0
19.01.2021 20:00:00 11,5 5,4 30 16 54 29 W 1024,3 - 0,0
19.01.2021 19:00:00 11,4 5,3 33 18 64 35 W 1024,2 25 0,0
19.01.2021 18:00:00 11,2 5,1 44 24 63 34 W 1023,9 - 0,0
19.01.2021 17:00:00 11,3 4,5 29 16 48 26 W 1024,0 - 0,0
19.01.2021 16:00:00 11,6 4,3 19 10 34 18 W 1024,5 25 0,0
19.01.2021 15:00:00 12,0 4,9 16 9 28 15 W 1024,6 - 0,0
19.01.2021 14:00:00 11,8 5,6 20 11 31 17 W 1024,7 - 0,0
19.01.2021 13:00:00 12,4 6,2 19 10 31 17 W 1025,4 25 0,0
19.01.2021 12:00:00 12,7 6,1 15 8 27 14 WSW 1025,9 - 0,0
19.01.2021 11:00:00 11,9 5,5 16 9 25 13 WSW 1026,4 - 0,0
19.01.2021 10:00:00 11,0 5,3 14 8 19 10 WSW 1026,3 - 0,0
19.01.2021 09:00:00 8,7 4,5 10 6 15 8 W 1025,9 - 0,0
19.01.2021 08:00:00 7,6 3,8 9 5 16 9 SW 1025,8 - 0,0
19.01.2021 07:00:00 7,7 3,4 14 8 16 9 SW 1025,7 - 0,0
19.01.2021 06:00:00 7,2 3,1 9 5 20 11 W 1025,6 - 0,0
19.01.2021 05:00:00 6,8 0,9 13 7 18 10 W 1025,5 - 0,0
19.01.2021 04:00:00 6,9 2,0 10 5 11 6 WSW 1025,3 - 0,0
19.01.2021 03:00:00 7,3 2,4 6 4 13 7 W 1025,6 - 0,0
19.01.2021 02:00:00 7,1 3,0 10 5 16 9 SSE 1025,6 - 0,0
19.01.2021 01:00:00 7,3 2,6 8 4 15 8 ESE 1025,7 14 0,0
19.01.2021 00:00:00 6,8 1,3 7 4 10 5 ESE 1025,8 - 0,0
18.01.2021 23:00:00 6,5 2,2 7 4 8 5 SE 1025,4 - 0,0
18.01.2021 22:00:00 6,7 3,1 3 2 4 2 ESE 1025,5 14 0,0
18.01.2021 21:00:00 6,9 3,7 0 0 7 4 N 1025,5 - 0,0
18.01.2021 20:00:00 7,0 4,1 6 3 9 5 SE 1025,1 - 0,0
18.01.2021 19:00:00 7,2 4,0 0 0 6 3 N 1024,8 20 0,0
18.01.2021 18:00:00 7,5 4,1 6 3 11 6 W 1024,2 - 0,0
18.01.2021 17:00:00 8,5 3,3 5 3 9 5 W 1023,9 - 0,0
18.01.2021 16:00:00 12,3 5,0 5 3 12 6 NW 1023,7 - 0,0
18.01.2021 15:00:00 13,2 5,4 3 2 20 11 WNW 1023,4 - 0,0
18.01.2021 14:00:00 12,4 5,8 7 4 19 11 E 1023,3 - 0,0
18.01.2021 13:00:00 11,0 5,1 6 4 14 8 SE 1023,5 - 0,0
18.01.2021 12:00:00 12,3 4,0 6 4 15 8 E 1023,9 - 0,0
18.01.2021 11:00:00 11,7 4,9 10 5 20 11 SE 1024,1 - 0,0
18.01.2021 10:00:00 10,8 5,5 6 3 9 5 ESE 1023,3 18 0,0
18.01.2021 09:00:00 7,9 5,0 4 2 11 6 SW 1022,8 - 0,0
18.01.2021 08:00:00 6,9 4,2 8 5 16 9 SW 1022,3 - 0,0
18.01.2021 07:00:00 6,7 3,8 7 4 13 7 W 1022,4 12 0,0
18.01.2021 06:00:00 6,8 3,2 7 4 14 8 W 1021,8 - 0,0

tt = Température de l'air
td = dewpoint
ff = Vitesse du vent
fx = gusts
dd = Direction du vent
ppp = reduced air pressure
vv = visibility
rr = Quantités de précipitations

stations d'obs. à proximité